Station ILOH1 - 1617760 - Hilo, HI Image indicating link to RSS feed of recent meteorological observations for station ILOH1


Conditions at ILOH1 as of
(10:48 pm HAST on 05/21/2024)
0848 GMT on 05/22/2024:
     

Click on the graph icon in the table below to see a time series plot of the last five days of that observation.

5-day plot - Wind Direction Wind Direction (WDIR): W ( 260 deg true )
5-day plot - Wind Speed Wind Speed (WSPD): 1.9 kts
5-day plot - Wind Gust Wind Gust (GST): 4.1 kts
5-day plot - Atmospheric Pressure Atmospheric Pressure (PRES):30.09 in
5-day plot - Air Temperature Air Temperature (ATMP): 71.6 °F
5-day plot - Water Temperature Water Temperature (WTMP): 76.8 °F
5-day plot - Wind Speed at 10 Meters Wind Speed at 10 meters (WSPD10M): 1.9 kts
5-day plot - Wind Speed at 20 Meters Wind Speed at 20 meters (WSPD20M): 1.9 kts
5-day plot -  Wind Speed, Wind Gust and Atmospheric Pressure Combined plot of Wind Speed, Gust, and Air Pressure
NOS Water Level Observation Network Water Level
Previous observations
TIME
(HAST)
5-day plot - Wind Direction
WDIR
 
5-day plot - Wind Speed
WSPD
kts
5-day plot - Wind Gust
GST
kts
5-day plot - Wave Height
WVHT
ft
5-day plot - Dominant Wave Period
DPD
sec
5-day plot - Average Wave Period
APD
sec
5-day plot - Mean Wave Direction
MWD
 
5-day plot - Atmospheric Pressure
PRES
in
5-day plot - Pressure Tendency
PTDY
in
5-day plot - Air Temperature
ATMP
°F
5-day plot - Water Temperature
WTMP
°F
5-day plot - Dew Point
DEWP
°F
5-day plot - Salinity
SAL
psu
5-day plot - Visibility
VIS
nmi
5-day plot - Tide (above MLLW)
TIDE
ft
2024-05-21 10:36 pm W 2.9 4.1----30.09- 71.6 76.8----
2024-05-21 10:30 pm- 0.0 4.1----30.09- 71.6 76.8----
2024-05-21 10:24 pmWSW 1.9 2.9----30.09- 71.6 76.8----
2024-05-21 10:18 pm W 1.9 4.1----30.09- 71.6 76.8----
2024-05-21 10:12 pm SW 1.0 4.1----30.09- 71.6 76.8----
2024-05-21 10:06 pmWSW 1.9 4.1----30.09- 71.4 76.8----
2024-05-21 10:00 pmWSW 1.9 4.1----30.09+0.05 71.4 76.8----
2024-05-21 09:54 pm W 1.9 2.9----30.09- 71.2 76.8----
2024-05-21 09:48 pm- 0.0 5.1----30.09- 71.2 76.8----
2024-05-21 09:42 pm SW 1.0 6.0----30.09- 71.6 76.8----
2024-05-21 09:36 pmWSW 2.9 6.0----30.09- 71.6 76.8----
2024-05-21 09:30 pm SE 1.9 7.0----30.09- 71.6 76.8----
2024-05-21 09:24 pm W 6.0 8.0----30.08- 71.4 76.8----
2024-05-21 09:18 pm W 4.1 6.0----30.08- 71.4 76.8----
2024-05-21 09:12 pm- 0.0 2.9----30.08- 71.4 76.8----
2024-05-21 09:06 pm SE 1.0 5.1----30.08- 71.4 76.8----
2024-05-21 09:00 pmSSW 2.9 8.0----30.08+0.06 71.6 76.8----
2024-05-21 08:54 pm SW 1.0 7.0----30.08- 71.4 76.8----
2024-05-21 08:48 pm SW 1.9 7.0----30.08- 71.6 76.8----
2024-05-21 08:42 pmWNW 7.0 8.0----30.08- 71.4 76.8----
2024-05-21 08:36 pmWNW 5.1 6.0----30.07- 71.8 76.8----
2024-05-21 08:30 pmWNW 4.1 4.1----30.07- 71.6 76.8----
2024-05-21 08:24 pm- 0.0 1.9----30.07- 71.8 76.8----
2024-05-21 08:18 pm S 1.0 1.9----30.07- 71.8 76.8----
2024-05-21 08:12 pm N 1.9 7.0----30.06- 71.8 76.8----
2024-05-21 08:06 pm SW 1.0 2.9----30.06- 72.0 76.8----
2024-05-21 08:00 pm- 0.0 2.9----30.06+0.06 71.8 76.8----
2024-05-21 07:54 pm SW 1.9 4.1----30.06- 71.8 76.8----
2024-05-21 07:48 pmSSW 1.9 6.0----30.05- 72.1 76.8----
2024-05-21 07:42 pm W 1.9 2.9----30.05- 72.0 76.8----
2024-05-21 07:36 pm W 1.9 2.9----30.05- 72.0 76.8----
2024-05-21 07:30 pm E 1.9 7.0----30.05- 72.0 76.8----
2024-05-21 07:24 pm NE 1.9 6.0----30.05- 72.1 76.6----
2024-05-21 07:18 pm- 0.0 2.9----30.04- 71.8 76.6----
2024-05-21 07:12 pm W 1.9 5.1----30.04- 71.8 76.6----
2024-05-21 07:06 pm W 2.9 5.1----30.03- 71.6 76.6----
2024-05-21 07:00 pm NW 2.9 2.9----30.03+0.04 71.6 76.6----
2024-05-21 06:54 pmWNW 1.9 2.9----30.03- 71.8 76.6----
2024-05-21 06:48 pm W 2.9 5.1----30.03- 71.8 76.6----
2024-05-21 06:42 pm W 4.1 4.1----30.03- 72.0 76.6----
2024-05-21 06:36 pm W 2.9 4.1----30.03- 72.0 76.6----
2024-05-21 06:30 pm W 2.9 5.1----30.02- 72.1 76.6----
2024-05-21 06:24 pm SW 1.9 5.1----30.02- 72.3 76.6----
2024-05-21 06:18 pm S 1.9 5.1----30.02- 72.7 76.6----
2024-05-21 06:12 pm S 4.1 4.1----30.02- 72.7 76.6----
2024-05-21 06:06 pm S 4.1 4.1----30.02- 72.5 76.6----
2024-05-21 06:00 pm S 2.9 4.1----30.01+0.02 72.7 76.6----
2024-05-21 05:54 pm S 2.9 6.0----30.01- 72.7 76.6----
2024-05-21 05:48 pm S 4.1 6.0----30.01- 72.9 76.6----
2024-05-21 05:42 pm S 1.9 4.1----30.01- 73.0 76.6----
2024-05-21 05:36 pm SW 1.0 5.1----30.01- 73.0 76.6----
2024-05-21 05:30 pmSSW 2.9 5.1----30.01- 73.0 76.6----
2024-05-21 05:24 pmSSW 2.9 5.1----30.01- 73.6 76.6----
2024-05-21 05:18 pmWSW 1.9 6.0----30.01- 73.8 76.6----
2024-05-21 05:12 pm S 1.9 8.0----30.00- 73.8 76.6----
2024-05-21 05:06 pmSSE 5.1 8.0----30.01- 73.6 76.6----
2024-05-21 05:00 pmSSE 5.1 7.0----30.00+0.00 73.6 76.6----
2024-05-21 04:54 pm SE 7.0 11.1----30.00- 73.6 76.6----
2024-05-21 04:48 pm SE 7.0 9.9----30.00- 73.2 76.6----
2024-05-21 04:42 pmESE 5.1 12.0----29.99- 73.8 76.6----
2024-05-21 04:36 pm E 8.9 12.0----29.99- 73.6 76.6----
2024-05-21 04:30 pmESE 8.9 14.0----29.99- 74.7 76.6----
2024-05-21 04:24 pmESE 6.0 11.1----29.99- 77.0 76.6----
2024-05-21 04:18 pm SE 5.1 6.0----29.99- 78.3 76.6----
2024-05-21 04:12 pmESE 4.1 6.0----29.99- 77.9 76.6----
2024-05-21 04:06 pm S 4.1 8.9----29.99- 77.5 76.6----
2024-05-21 04:00 pm SE 5.1 8.0----29.99-0.02 77.7 76.6----
2024-05-21 03:54 pm SE 6.0 11.1----29.99- 77.4 76.6----
2024-05-21 03:48 pm S 8.0 11.1----29.99- 77.4 76.6----
2024-05-21 03:42 pmSSE 8.0 12.0----30.00- 77.2 76.6----
2024-05-21 03:36 pmESE 6.0 8.9----30.00- 77.9 76.6----
2024-05-21 03:30 pmESE 5.1 9.9----30.00- 77.5 76.6----
2024-05-21 03:24 pm SE 7.0 13.0----30.00- 77.2 76.6----
2024-05-21 03:18 pmESE 6.0 11.1----30.00- 78.4 76.6----
2024-05-21 03:12 pmSSE 8.0 12.0----30.00- 77.9 76.6----
2024-05-21 03:06 pmSSE 8.0 11.1----29.99- 78.1 76.6----
2024-05-21 03:00 pmESE 5.1 11.1----29.99-0.04 78.4 76.6----
2024-05-21 02:54 pmSSE 6.0 11.1----30.00- 78.1 76.6----
2024-05-21 02:48 pm SE 8.0 11.1----29.99- 77.2 76.6----
2024-05-21 02:42 pm SE 8.0 12.0----29.99- 76.8 76.6----
2024-05-21 02:36 pm SE 5.1 13.0----29.99- 78.4 76.6----
2024-05-21 02:30 pm SE 8.9 14.0----29.99- 77.5 76.6----
2024-05-21 02:24 pmESE 5.1 9.9----29.99- 79.3 76.6----
2024-05-21 02:18 pmESE 4.1 8.0----29.99- 79.7 76.6----
2024-05-21 02:12 pm E 6.0 11.1----30.00- 78.8 76.6----
2024-05-21 02:06 pmESE 7.0 9.9----30.00- 79.2 76.6----
2024-05-21 02:00 pm E 5.1 8.0----30.00-0.05 79.7 76.6----
2024-05-21 01:54 pm E 6.0 8.0----30.00- 79.2 76.5----
2024-05-21 01:48 pm E 1.0 5.1----30.00- 76.5 76.5----
2024-05-21 01:42 pmNNW 4.1 7.0----30.00- 75.4 76.6----
2024-05-21 01:36 pmNNW 2.9 7.0----30.01- 75.6 76.6----
2024-05-21 01:30 pmNNW 6.0 7.0----30.01- 75.0 76.6----
2024-05-21 01:24 pm N 2.9 5.1----30.01- 75.0 76.6----
2024-05-21 01:18 pm N 2.9 5.1----30.01- 74.8 76.6----
2024-05-21 01:12 pm NW 5.1 6.0----30.01- 74.5 76.6----
2024-05-21 01:06 pm NW 5.1 8.9----30.01- 74.3 76.6----
2024-05-21 01:00 pmNNW 6.0 8.9----30.01-0.04 74.8 76.6----
2024-05-21 12:54 pm N 2.9 5.1----30.02- 76.3 76.6----
2024-05-21 12:48 pmWSW 1.9 5.1----30.02- 76.5 76.6----
2024-05-21 12:42 pm SW 1.0 6.0----30.02- 76.8 76.6----
2024-05-21 12:36 pm S 4.1 7.0----30.02- 77.0 76.6----
2024-05-21 12:30 pmSSW 2.9 7.0----30.02- 77.5 76.6----
2024-05-21 12:24 pm SW 2.9 7.0----30.02- 77.5 76.6----
2024-05-21 12:18 pm SW 1.9 6.0----30.02- 77.4 76.6----
2024-05-21 12:12 pm S 5.1 8.9----30.03- 77.4 76.6----
2024-05-21 12:06 pm S 5.1 8.9----30.03- 77.7 76.6----
2024-05-21 12:00 pmSSE 7.0 8.0----30.03-0.03 77.9 76.6----
2024-05-21 11:54 amSSE 5.1 7.0----30.03- 78.4 76.6----
2024-05-21 11:48 amSSE 2.9 6.0----30.03- 79.2 76.6----
2024-05-21 11:42 am SW 2.9 8.0----30.03- 79.7 76.6----
2024-05-21 11:36 amSSW 1.9 7.0----30.03- 80.2 76.6----
2024-05-21 11:30 am S 5.1 7.0----30.04-- 76.6----
2024-05-21 11:24 am S 2.9 6.0----30.04-- 76.6----
2024-05-21 11:18 am S 5.1 6.0----30.04-- 76.6----
2024-05-21 11:12 am S 4.1 7.0----30.04-- 76.6----
2024-05-21 11:06 amSSW 2.9 7.0----30.04-- 76.6----
2024-05-21 11:00 am S 5.1 8.0----30.04-0.01 78.8 76.6----
2024-05-21 10:54 amSSW 2.9 8.9----30.04- 79.0 76.6----
2024-05-21 10:48 amSSW 1.9 7.0----30.04-- 76.6----
2024-05-21 10:42 am SW 2.9 6.0----30.04-- 76.6----
2024-05-21 10:36 amSSW 2.9 6.0----30.05-- 76.6----
2024-05-21 10:30 amSSW 2.9 6.0----30.05-------
2024-05-21 10:24 am S 4.1 8.0----30.05-------
2024-05-21 10:18 am SE 5.1 8.9----30.05-- 76.6----
2024-05-21 10:12 amSSE 7.0 9.9----30.05-- 76.6----
2024-05-21 10:06 am SE 6.0 8.9----30.05-- 76.6----
2024-05-21 10:00 amESE 2.9 7.0----30.06+0.01 78.1 76.6----
2024-05-21 09:54 amSSE 4.1 8.0----30.06- 77.2 76.6----
2024-05-21 09:48 amSSE 6.0 8.0----30.06-- 76.5----
2024-05-21 09:42 amESE 2.9 8.9----30.06-- 76.5----
2024-05-21 09:36 amSSE 6.0 8.0----30.06-- 76.5----
2024-05-21 09:30 am SE 5.1 8.0------- 76.5----
2024-05-21 09:24 amSSE 6.0 8.9------- 76.5----
2024-05-21 09:18 am SE 4.1 9.9----30.06- 77.5 76.5----
2024-05-21 09:12 amSSE 7.0 8.9----30.06- 77.5 76.5----
2024-05-21 09:06 am SE 5.1 7.0----30.06- 77.4 76.5----
2024-05-21 09:00 am S 4.1 8.0----30.06+0.02 77.4 76.5----
2024-05-21 08:54 am S 4.1 7.0----30.06- 77.4 76.5----
2024-05-21 08:48 am S 2.9 6.0----30.06- 77.5 76.3----
2024-05-21 08:42 amSSE 2.9 6.0----30.06- 77.5 76.3----
2024-05-21 08:36 amSSE 4.1 6.0----30.06- 77.0 76.3----
2024-05-21 08:30 am S 4.1 6.0----30.06- 76.8 76.3----
2024-05-21 08:24 am S 1.9 2.9----30.06- 76.8 76.3----
2024-05-21 08:18 am- 0.0 2.9----30.06- 76.5 76.1----
2024-05-21 08:12 am W 1.9 2.9----30.06- 75.2 76.5----
2024-05-21 08:06 am- 0.0 2.9----30.06- 75.2 76.6----
2024-05-21 08:00 amWSW 1.9 1.9----30.06+0.04 74.7 76.6----
2024-05-21 07:54 am- 0.0 2.9----30.06- 74.5 76.6----
2024-05-21 07:48 am SW 1.0 5.1----30.06- 73.8 76.6----
2024-05-21 07:42 amSSW 1.0 2.9----30.06- 73.8 76.6----
2024-05-21 07:36 am SW 1.9 5.1----30.06- 73.4 76.6----
2024-05-21 07:30 am SW 2.9 5.1----30.06- 72.9 76.6----
2024-05-21 07:24 am SW 1.0 4.1----30.06- 72.7 76.6----
2024-05-21 07:18 am SW 1.9 4.1----30.05- 72.3 76.6----
2024-05-21 07:12 am S 1.0 5.1----30.05- 72.1 76.6----
2024-05-21 07:06 amSSW 1.0 4.1----30.05- 71.8 76.6----
2024-05-21 07:00 am SW 1.9 2.9----30.04+0.03 70.9 76.6----
2024-05-21 06:54 amSSW 1.9 5.1----30.04- 70.3 76.6----
2024-05-21 06:48 amSSW 1.9 4.1----30.04- 70.0 76.6----
2024-05-21 06:42 amSSW 1.9 4.1----30.04- 69.8 76.6----
2024-05-21 06:36 amSSW 2.9 4.1----30.04- 69.6 76.6----
2024-05-21 06:30 amSSW 1.9 4.1----30.04- 69.4 76.5----
2024-05-21 06:24 amSSW 1.9 2.9----30.04- 69.3 76.5----
2024-05-21 06:18 amSSW 2.9 4.1----30.03- 69.1 76.5----
2024-05-21 06:12 amSSW 1.9 2.9----30.03- 68.9 76.6----
2024-05-21 06:06 amSSW 2.9 4.1----30.03- 69.1 76.6----
2024-05-21 06:00 amSSW 1.9 4.1----30.03+0.02 68.9 76.8----
2024-05-21 05:54 amSSW 2.9 4.1----30.03- 69.1 76.8----
2024-05-21 05:48 amSSW 1.9 4.1----30.03- 69.3 76.8----
2024-05-21 05:42 amSSW 1.9 2.9----30.03- 69.3 76.6----
2024-05-21 05:36 am SW 1.9 4.1----30.03- 69.3 76.6----
2024-05-21 05:30 amSSW 1.9 4.1----30.03- 69.3 76.6----
2024-05-21 05:24 am SW 1.9 4.1----30.03- 69.3 76.6----
2024-05-21 05:18 amSSW 2.9 4.1----30.03- 69.4 76.6----
2024-05-21 05:12 amSSW 1.9 2.9----30.02- 69.4 76.6----
2024-05-21 05:06 amSSW 1.9 2.9----30.02- 69.6 76.8----
2024-05-21 05:00 amSSW 1.9 4.1----30.02+0.00 69.6 76.8----
2024-05-21 04:54 amSSW 1.9 2.9----30.02- 69.8 76.8----
2024-05-21 04:48 amSSW 1.9 1.9----30.02- 69.8 76.8----
2024-05-21 04:42 amSSW 1.0 2.9----30.02- 70.0 76.8----
2024-05-21 04:36 am SW 1.9 4.1----30.01- 70.2 76.8----
2024-05-21 04:30 am SW 1.9 5.1----30.01- 70.0 76.8----
2024-05-21 04:24 amSSW 1.9 4.1----30.01- 70.0 76.8----
2024-05-21 04:18 am SW 1.9 4.1----30.01- 70.0 76.8----
2024-05-21 04:12 amSSW 1.9 4.1----30.01- 70.0 76.8----
2024-05-21 04:06 amSSW 2.9 4.1----30.01- 70.2 76.8----
2024-05-21 04:00 am SW 1.0 2.9----30.01-0.03 70.2 76.8----
2024-05-21 03:54 am SW 1.9 4.1----30.01- 70.3 76.8----
2024-05-21 03:48 am SW 1.9 2.9----30.01- 70.3 76.8----
2024-05-21 03:42 am SW 1.9 2.9----30.01- 70.3 76.8----
2024-05-21 03:36 am SW 1.0 4.1----30.01- 70.5 76.6----
2024-05-21 03:30 amWSW 1.0 2.9----30.01- 70.5 76.6----
2024-05-21 03:24 am SW 1.0 4.1----30.01- 70.5 76.6----
2024-05-21 03:18 am- 0.0 4.1----30.01- 70.5 76.6----
2024-05-21 03:12 amSSW 2.9 4.1----30.01- 70.7 76.6----
2024-05-21 03:06 amSSW 1.9 4.1----30.01- 70.5 76.6----
2024-05-21 03:00 amSSW 1.0 2.9----30.01-0.05 70.5 76.6----
2024-05-21 02:54 am- 0.0 4.1----30.01- 70.5 76.6----
2024-05-21 02:48 am S 2.9 4.1----30.02- 70.5 76.6----
2024-05-21 02:42 am- 0.0 1.9----30.02- 70.3 76.8----
2024-05-21 02:36 amSSW 1.0 2.9----30.02- 70.3 76.6----
2024-05-21 02:30 am S 1.9 2.9----30.02- 70.3 76.8----
2024-05-21 02:24 amSSW 1.9 2.9----30.02- 70.3 76.6----
2024-05-21 02:18 amSSW 1.9 2.9----30.02- 70.3 76.6----
2024-05-21 02:12 amSSW 1.9 4.1----30.02- 70.3 76.8----
2024-05-21 02:06 amSSW 2.9 4.1----30.02- 70.5 76.6----
2024-05-21 02:00 am S 2.9 5.1----30.02-0.05 70.7 76.8----
2024-05-21 01:54 amSSW 2.9 4.1----30.02- 70.9 76.8----
2024-05-21 01:48 amSSW 2.9 5.1----30.03- 71.1 76.6----
2024-05-21 01:42 am SW 1.0 4.1----30.03- 70.9 76.6----
2024-05-21 01:36 amSSW 1.9 4.1----30.03- 71.1 76.6----
2024-05-21 01:30 amSSW 1.9 4.1----30.04- 71.1 76.6----
2024-05-21 01:24 amSSW 2.9 4.1----30.04- 71.1 76.6----
2024-05-21 01:18 am S 2.9 2.9----30.04- 71.2 76.6----
2024-05-21 01:12 am S 2.9 4.1----30.04- 71.2 76.6----
2024-05-21 01:06 am S 1.9 4.1----30.04- 71.6 76.6----
2024-05-21 01:00 amSSW 1.9 4.1----30.04- 71.8 76.6----
2024-05-21 12:54 am S 1.9 4.1----30.05- 71.8 76.6----
2024-05-21 12:48 amSSW 2.9 4.1----30.05- 72.0 76.6----
2024-05-21 12:42 am S 1.9 1.9----30.05- 72.0 76.6----
2024-05-21 12:36 amSSW 1.9 2.9----30.05- 72.0 76.6----
2024-05-21 12:30 am S 1.9 2.9----30.05- 72.1 76.6----
2024-05-21 12:24 am S 1.9 1.9----30.06- 72.1 76.6----
2024-05-21 12:18 am S 1.9 2.9----30.06- 72.1 76.6----
2024-05-21 12:12 am SW 1.0 2.9----30.06- 72.3 76.6----
2024-05-21 12:06 am S 1.9 4.1----30.06- 72.1 76.6----
2024-05-21 12:00 am SW 1.9 4.1----30.06-0.01 72.1 76.6----
2024-05-20 11:54 pm SW 1.9 4.1----30.06- 72.1 76.6----
2024-05-20 11:48 pmSSW 1.0 2.9----30.06- 72.1 76.6----
2024-05-20 11:42 pm SW 1.0 2.9----30.06- 72.1 76.6----
2024-05-20 11:36 pmWSW 1.9 4.1----30.07- 72.3 76.6----
2024-05-20 11:30 pmSSW 1.0 2.9----30.07- 72.3 76.6----
2024-05-20 11:24 pm SW 1.9 5.1----30.07- 72.3 76.6----
2024-05-20 11:18 pmSSW 1.0 1.9----30.07- 72.1 76.6----
2024-05-20 11:12 pm- 0.0 4.1----30.07- 72.1 76.6----
2024-05-20 11:06 pmWSW 1.9 4.1----30.07- 72.1 76.6----
2024-05-20 11:00 pm SW 1.0 4.1----30.07+0.02 72.1 76.8----
2024-05-20 10:54 pmWSW 1.9 6.0----30.08- 72.1 76.6----